EW5206 Weather Reports


Display with metric or nautical units.
time (UTC)temp
F
wind
direction
speed
MPH
gust
MPH
rain 1hr
in
rain 24hr
in
rain mn
in
humidity
%
barometer
mb
20260905054531 70 0.0 0.0 0.00 0.00 0.00 89 1013.1
20260905053020 71 0.0 0.0 0.00 0.00 0.00 89 1013.2
20260905051519 71 0.0 0.0 0.00 0.00 0.00 89 1013.4
20260905050017 71 0.0 0.0 0.00 0.00 0.00 88 1013.7
20260905044515 71 0.0 0.0 0.00 0.00 0.00 88 1013.9
20260905043014 71 0.0 0.0 0.00 0.00 0.00 88 1014.0
20260905041513 72 0.0 0.0 0.00 0.00 0.00 88 1013.7
20260905040013 72 0.0 0.0 0.00 0.00 0.00 87 1013.7
20260905034519 72 0.0 0.0 0.00 0.00 0.00 87 1013.6
20260905033008 72 0.0 0.0 0.00 0.00 0.00 86 1013.7
20260905031508 73 0.0 0.0 0.00 0.00 0.00 86 1014.0
20260905030008 73 0.0 0.0 0.00 0.00 0.00 85 1014.0
20260905024509 74 0.0 0.0 0.00 0.00 0.00 84 1013.9
20260905023010 74 0.0 0.0 0.00 0.00 0.00 83 1013.6
20260905021506 75 0.0 0.0 0.00 0.00 0.00 81 1013.2
20260905020007 75 0.0 0.0 0.00 0.00 0.00 80 1012.4
20260905014505 76 0.0 0.0 0.00 0.00 0.00 79 1012.1
20260905013004 77 0.0 0.0 0.00 0.00 0.00 77 1012.1
20260905011504 78 0.0 0.0 0.00 0.00 0.00 76 1011.9
20260905010002 78 0.0 0.0 0.00 0.00 0.00 74 1012.1
20260905004502 79 0.0 0.0 0.00 0.00 0.00 72 1012.3
20260905003003 80 0.0 0.0 0.00 0.00 0.00 69 1012.9
20260905001500 80 0.0 0.0 0.00 0.00 0.00 67 1012.7
20260905000100 81 0.0 0.0 0.00 0.00 0.00 66 1012.5
20260904234559 82 0.0 0.0 0.00 0.00 0.00 65 1012.4
20260904233059 83 0.0 0.0 0.00 0.00 0.00 66 1012.4
20260904231558 84 0.0 0.0 0.00 0.00 0.00 66 1012.5
20260904230127 84 0.0 0.0 0.00 0.00 0.00 65 1012.6
20260904224601 85 0.0 0.0 0.00 0.00 0.00 64 1013.1
20260904223103 85 0.0 0.0 0.00 0.00 0.00 64 1013.3
20260904221557 85 0.0 0.0 0.00 0.00 0.00 62 1013.2
20260904220056 86 0.0 0.0 0.00 0.00 0.00 61 1013.3
20260904214555 87 0.0 0.0 0.00 0.00 0.00 59 1013.3
20260904213055 88 0.0 0.0 0.00 0.00 0.00 56 1013.0
20260904211556 89 0.0 0.0 0.00 0.00 0.00 54 1013.2
20260904210053 89 0.0 0.0 0.00 0.00 0.00 53 1013.0
20260904204552 89 0.0 0.0 0.00 0.00 0.00 53 1012.9
20260904203050 89 0.0 0.0 0.00 0.00 0.00 53 1012.5
20260904201550 89 0.0 0.0 0.00 0.00 0.00 54 1012.4
20260904200048 89 0.0 0.0 0.00 0.00 0.00 53 1012.3
20260904194546 89 0.0 0.0 0.00 0.00 0.00 56 1012.6
20260904193043 90 0.0 0.0 0.00 0.00 0.00 55 1013.1
20260904191542 90 0.0 0.0 0.00 0.00 0.00 51 1013.4
20260904190041 91 0.0 0.0 0.00 0.00 0.00 49 1013.3
20260904184540 93 0.0 0.0 0.00 0.00 0.00 46 1013.4
20260904183039 93 0.0 0.0 0.00 0.00 0.00 47 1013.5
20260904181540 93 0.0 0.0 0.00 0.00 0.00 48 1013.8
20260904180039 94 0.0 0.0 0.00 0.00 0.00 44 1013.9
20260904174538 96 0.0 0.0 0.00 0.00 0.00 43 1014.0
20260904173040 96 0.0 0.0 0.00 0.00 0.00 42 1014.1
20260904171537 98 0.0 0.0 0.00 0.00 0.00 41 1014.4
20260904170036 98 0.0 0.0 0.00 0.00 0.00 41 1014.5
20260904164535 98 0.0 0.0 0.00 0.00 0.00 42 1014.5
20260904163033 98 0.0 0.0 0.00 0.00 0.00 44 1014.5
20260904161533 97 0.0 0.0 0.00 0.00 0.00 46 1014.6
20260904160032 98 0.0 0.0 0.00 0.00 0.00 45 1014.8
20260904154532 98 0.0 0.0 0.00 0.00 0.00 45 1014.8
20260904153038 99 0.0 0.0 0.00 0.00 0.00 44 1015.0
20260904151527 98 0.0 0.0 0.00 0.00 0.00 47 1014.9
20260904150026 96 0.0 0.0 0.00 0.00 0.00 51 1014.9
20260904144518 95 0.0 0.0 0.00 0.00 0.00 56 1015.0
20260904143014 93 0.0 0.0 0.00 0.00 0.00 57 1014.9
20260904141511 90 0.0 0.0 0.00 0.00 0.00 61 1014.9
20260904140006 88 0.0 0.0 0.00 0.00 0.00 65 1015.0
20260904134504 87 0.0 0.0 0.00 0.00 0.00 64 1015.0
20260904133002 86 0.0 0.0 0.00 0.00 0.00 66 1015.1
20260904131600 83 0.0 0.0 0.00 0.00 0.00 71 1015.1
20260904124555 80 0.0 0.0 0.00 0.00 0.00 76 1015.2
20260904123044 77 0.0 0.0 0.00 0.00 0.00 83 1015.2
20260904121543 73 0.0 0.0 0.00 0.00 0.00 88 1015.1
20260904120056 72 0.0 0.0 0.00 0.00 0.00 90 1015.1
20260904114541 71 0.0 0.0 0.00 0.00 0.00 90 1015.0
20260904113041 71 0.0 0.0 0.00 0.00 0.00 90 1015.0
20260904111541 71 0.0 0.0 0.00 0.00 0.00 90 1015.0
20260904110042 71 0.0 0.0 0.00 0.00 0.00 90 1015.0
20260904104537 71 0.0 0.0 0.00 0.00 0.00 89 1014.8
20260904103037 72 0.0 0.0 0.00 0.00 0.00 88 1014.8
20260904101535 72 0.0 0.0 0.00 0.00 0.00 87 1014.7
20260904100035 72 0.0 0.0 0.00 0.00 0.00 86 1014.5
20260904094535 73 0.0 0.0 0.00 0.00 0.00 86 1014.4
20260904093037 73 0.0 0.0 0.00 0.00 0.00 86 1014.4
20260904091534 73 0.0 0.0 0.00 0.00 0.00 86 1014.3
20260904090034 72 0.0 0.0 0.00 0.00 0.00 88 1014.2
20260904084532 72 0.0 0.0 0.00 0.00 0.00 87 1014.1
20260904083035 73 0.0 0.0 0.00 0.00 0.00 86 1013.9
20260904081533 73 0.0 0.0 0.00 0.00 0.00 85 1013.7
20260904080029 73 0.0 0.0 0.00 0.00 0.00 85 1013.8
20260904074527 73 0.0 0.0 0.00 0.00 0.00 85 1013.6
20260904073027 73 0.0 0.0 0.00 0.00 0.00 85 1013.6
20260904071524 73 0.0 0.0 0.00 0.00 0.00 85 1013.8
20260904070023 74 0.0 0.0 0.00 0.00 0.00 85 1013.9
20260904064520 74 0.0 0.0 0.00 0.00 0.00 84 1014.1
20260904063018 74 0.0 0.0 0.00 0.00 0.00 83 1014.2
20260904061535 74 0.0 0.0 0.00 0.00 0.00 83 1014.5
20260904060013 74 0.0 0.0 0.00 0.00 0.00 82 1014.8